Probability
0 0 0 0 0 0 0 1 2 3 8 14 20 24 28 32 37 40 43 48 58 63 62 59 59 59 56 56 58 58 56 53 52 52 50 48 45 41 37 32 29 28 27 25
0 0 0 0 0 0 1 1 2 5 12 19 25 30 32 35 40 44 46 51 58 63 63 64 64 62 59 59 61 61 60 57 55 52 50 48 44 40 37 33 30 28 26 25
0 0 0 0 0 1 2 2 3 8 16 24 30 36 38 39 44 48 48 53 60 63 65 68 69 67 65 65 67 68 66 63 59 56 53 48 43 40 38 36 33 31 28 26
0 0 0 0 0 2 5 6 7 11 18 25 31 38 41 43 47 49 50 55 60 63 66 68 69 69 68 68 69 70 67 63 61 60 56 49 44 41 41 40 38 35 32 30
1 0 0 0 1 3 7 10 12 14 20 26 31 37 40 44 50 53 55 58 60 60 63 65 66 66 66 65 65 65 63 60 58 57 53 48 44 43 42 42 39 35 31 30
1 1 1 2 2 3 8 13 15 17 22 28 33 37 41 48 54 57 58 59 59 59 60 62 64 64 63 61 60 59 57 54 52 52 50 46 44 43 41 40 38 33 29 28
1 2 3 4 4 8 15 21 21 21 24 29 35 42 48 54 58 58 57 57 58 58 59 61 62 62 61 60 57 54 49 46 45 46 45 41 41 41 38 36 34 31 29 28
4 6 9 12 15 22 30 32 27 25 28 32 38 45 50 53 57 58 57 56 57 58 58 59 60 60 59 57 53 48 43 39 37 39 37 34 35 34 33 31 29 29 28 27
12 14 18 23 28 34 36 32 28 28 31 36 41 44 45 48 52 55 56 55 55 55 54 54 55 55 54 51 46 43 39 35 32 31 30 30 29 28 28 27 26 26 26 26
18 18 21 24 27 29 29 27 27 29 33 39 42 42 42 44 47 50 50 49 48 48 49 49 49 48 46 44 41 38 35 31 27 24 24 24 25 25 24 22 22 23 24 24
18 19 20 21 21 22 25 27 29 31 36 41 42 42 41 44 46 46 45 43 42 42 42 43 43 42 40 40 39 36 32 27 22 19 17 18 19 19 17 15 14 16 18 19
19 21 23 23 21 21 24 28 31 35 39 41 41 40 39 41 43 42 41 42 41 38 35 34 35 35 35 36 36 35 31 26 22 18 17 16 15 13 10 8 6 7 9 10
19 20 22 22 22 23 25 29 33 37 39 40 40 37 34 35 37 37 38 41 40 35 30 28 27 28 30 31 31 33 31 27 23 22 20 18 15 12 9 6 4 2 2 2
17 18 21 24 25 26 28 31 33 34 34 35 35 32 28 29 31 32 34 36 35 33 29 26 24 25 27 28 27 28 27 25 24 23 21 19 16 14 12 9 7 4 2 1
19 20 23 27 29 29 28 28 28 28 28 28 28 26 23 23 27 29 29 30 32 31 29 27 25 26 29 29 27 25 21 19 20 21 19 17 16 15 14 12 10 7 5 4
20 21 24 27 28 28 26 24 23 24 25 23 22 21 19 20 24 26 26 28 31 31 29 28 26 26 29 30 27 24 19 14 14 16 16 15 15 15 14 13 11 10 8 7
19 20 21 22 24 24 23 21 21 23 23 21 19 17 17 18 20 22 24 28 31 31 30 28 26 26 26 26 23 20 16 11 9 11 13 14 14 14 12 11 10 10 10 8
17 18 18 17 18 21 21 20 20 20 19 18 17 15 14 15 16 19 23 26 28 30 28 24 22 22 20 18 16 14 12 9 6 7 9 11 13 12 9 8 9 10 8 6
15 16 15 14 14 17 20 21 21 19 17 17 17 15 14 15 17 19 22 24 24 24 23 18 15 15 13 10 8 9 8 6 4 4 5 7 8 7 7 6 7 8 8 5
15 15 14 13 13 16 19 21 22 21 18 18 18 17 16 17 18 19 19 20 20 19 16 13 11 10 8 5 4 4 5 4 3 3 3 3 4 4 5 6 7 7 7 5
15 14 14 14 15 17 18 20 21 19 17 17 18 18 18 18 18 17 16 16 17 15 11 8 8 7 5 3 2 1 2 2 3 3 3 3 3 3 4 6 6 6 5 4
14 14 14 16 17 18 19 18 18 17 16 16 16 16 17 17 16 14 13 13 13 10 6 5 5 4 3 3 2 1 1 2 3 3 2 3 3 3 4 6 6 5 4 3
18 18 18 19 18 18 18 17 16 16 17 16 16 15 14 12 11 10 9 8 7 5 4 4 4 3 3 3 2 1 2 3 2 1 1 1 2 3 3 5 5 4 3 3
22 23 23 22 20 18 18 17 15 16 17 16 15 13 10 8 8 7 5 4 3 2 3 3 3 2 2 3 2 1 2 3 3 1 0 0 1 2 2 3 4 3 3 3
20 22 23 23 21 19 18 17 15 15 14 12 10 7 6 7 7 6 4 3 2 2 3 3 1 1 2 3 2 1 1 2 3 2 1 1 0 0 0 1 3 3 3 3
13 16 19 19 18 16 16 15 14 12 10 8 5 3 4 6 7 6 5 4 3 3 3 3 1 1 3 3 3 1 1 1 3 3 3 2 1 0 1 1 3 3 3 3
11 13 16 16 14 14 14 13 11 8 8 6 3 2 4 6 7 7 6 5 4 3 3 3 2 2 3 3 3 2 2 1 2 3 3 3 2 1 2 2 3 3 3 2
Wind_Speed
15 13 11 13 15 16 16 13 12 10 8 6 6 7 8 8 7 7 8 9 9 8 7 7 7 6 6 6 6 6 6 5 5 4 4 3 2 3 3 2 2 2 2 2
15 15 13 13 14 15 15 13 13 12 6 4 6 7 7 8 7 8 8 9 9 9 8 7 7 7 6 6 6 6 6 5 5 5 5 4 3 3 3 3 3 3 3 2
12 13 13 14 14 14 12 12 11 9 4 5 7 7 6 7 8 9 8 8 9 8 8 7 7 6 7 7 6 6 6 5 5 5 5 4 4 3 3 3 3 3 3 2
11 11 15 11 10 11 10 9 8 4 4 6 7 6 5 6 7 8 8 8 8 8 7 7 7 6 6 7 7 7 6 5 5 5 5 4 4 4 4 3 3 3 3 3
9 11 12 9 10 10 8 7 5 4 5 6 7 7 5 5 7 7 8 8 7 8 8 7 7 6 7 7 7 6 6 5 5 5 5 4 4 3 3 3 3 3 3 3
9 11 12 9 8 7 7 7 4 3 4 5 7 4 3 5 7 8 8 8 8 8 8 7 6 6 7 7 6 6 5 5 5 5 5 4 4 4 3 3 3 3 4 3
12 12 8 5 4 6 8 3 3 4 4 4 3 3 6 6 7 8 9 9 8 8 7 7 7 6 6 6 6 5 5 5 5 5 5 5 4 4 3 3 3 3 4 3
11 12 8 3 4 4 2 4 4 3 4 4 7 8 7 7 6 7 9 9 8 7 7 6 6 6 6 6 5 5 6 5 5 5 4 5 4 3 3 3 3 3 3 3
4 4 1 4 4 4 4 4 4 3 3 4 6 7 7 7 6 6 7 8 7 8 7 6 6 6 6 5 5 5 6 5 5 5 4 4 4 3 3 2 2 2 3 2
3 3 1 1 3 3 3 4 4 3 3 4 5 5 6 6 5 5 6 6 7 7 7 6 5 6 6 5 5 5 5 5 5 5 4 4 2 2 2 1 1 1 2 2
3 2 1 1 1 1 2 2 2 2 2 2 4 5 5 5 5 5 5 5 5 5 6 6 5 5 5 5 5 5 5 4 5 5 5 4 4 4 3 4 2 1 1 2
3 1 1 1 0 1 1 2 1 2 2 2 3 5 5 5 4 4 4 5 6 6 5 6 5 5 5 4 4 4 4 3 3 4 4 5 6 6 10 7 8 8 7 4
2 2 2 1 1 0 0 0 0 1 2 1 2 3 4 5 4 4 5 5 7 7 6 5 6 5 5 4 4 4 3 3 3 3 4 4 4 5 5 5 8 8 8 7
3 2 3 2 1 0 1 1 1 1 1 1 2 2 3 5 5 4 5 4 6 7 7 6 6 5 5 4 4 4 3 3 3 3 3 3 3 4 4 5 4 3 3 4
4 4 3 2 1 2 1 2 2 2 2 2 2 3 4 4 4 4 4 3 5 6 6 6 6 5 5 4 4 4 3 3 2 2 3 3 3 3 3 4 4 4 4 3
4 4 4 3 3 4 4 4 3 3 3 3 3 3 4 4 4 4 4 4 5 6 6 6 6 5 5 4 4 3 2 3 2 2 3 3 3 3 3 4 4 3 3 3
5 5 4 4 4 5 4 4 3 3 3 3 4 4 4 5 4 3 3 3 4 5 5 6 6 5 5 5 4 3 3 4 3 2 2 2 2 2 3 3 3 3 3 3
6 5 5 5 4 3 2 3 2 3 3 3 4 5 5 4 4 4 3 3 5 5 5 5 5 5 5 4 3 2 3 3 3 2 2 2 2 2 3 3 3 3 3 4
5 5 5 4 4 2 2 2 2 3 3 3 4 4 4 4 3 3 3 4 5 6 5 6 7 6 5 5 3 2 3 4 3 2 2 3 3 3 3 3 3 3 3 3
4 4 5 4 4 3 3 3 3 3 3 3 3 3 3 3 3 3 3 4 4 3 5 6 6 5 6 5 3 3 3 4 4 3 3 3 3 2 2 3 3 3 3 3
2 3 3 3 3 3 3 3 3 3 3 3 3 3 3 3 3 3 4 4 4 5 5 6 5 4 4 4 4 4 4 4 4 3 3 3 2 2 2 2 3 3 3 3
2 2 2 3 3 3 3 3 3 4 4 3 3 3 3 3 3 3 3 3 5 6 5 5 4 5 4 4 4 4 4 4 3 3 3 3 3 3 3 3 2 2 2 2
2 2 2 2 3 4 3 3 3 4 4 3 3 3 4 3 3 3 3 3 5 5 4 4 6 7 5 4 3 4 4 4 4 3 3 3 3 3 3 3 3 3 2 2
1 1 1 2 3 4 4 3 3 3 3 3 3 4 3 3 3 2 3 5 6 5 3 5 8 7 5 3 3 3 3 4 3 3 3 3 3 3 3 3 3 3 3 4
1 1 2 3 3 3 3 3 3 3 3 3 3 4 3 3 3 3 4 6 6 5 4 5 7 7 5 3 3 3 3 3 3 3 3 3 3 3 3 3 3 3 3 3
1 1 1 2 2 2 2 3 3 3 3 3 3 3 3 3 4 5 5 6 7 5 4 5 5 6 5 4 3 3 3 4 5 4 4 4 4 4 3 3 4 3 2 2
3 2 2 2 2 2 2 3 3 3 4 4 3 3 4 5 5 5 5 5 5 4 4 4 5 5 4 4 3 3 3 4 4 4 4 4 4 4 4 4 3 3 2 3
Wind_Direction
259 261 249 236 236 234 234 236 243 238 215 190 165 147 139 138 136 137 137 135 135 135 135 139 141 141 142 144 143 147 144 144 142 140 131 121 117 116 112 106 107 82 64 49
254 255 254 251 244 238 231 230 236 243 230 164 138 131 133 142 149 146 141 143 142 139 139 139 139 140 137 134 136 136 139 140 136 135 128 123 129 121 110 103 92 82 77 62
252 243 246 243 244 243 234 229 234 241 202 133 127 127 143 144 139 137 146 142 140 143 140 139 140 138 140 136 133 129 130 132 133 138 140 139 142 121 112 110 105 92 80 69
252 248 242 247 243 241 240 228 236 215 133 133 130 129 133 136 134 137 139 136 132 134 134 133 132 129 129 130 129 129 131 135 133 133 132 125 125 120 116 113 107 99 88 77
244 243 242 247 239 231 229 229 225 198 151 136 122 123 124 127 123 124 130 125 125 127 126 121 123 126 127 129 131 134 137 135 132 133 131 132 131 126 121 120 113 105 92 79
242 244 237 236 250 244 219 221 210 173 147 147 144 163 135 102 106 110 111 115 116 117 118 121 119 117 123 126 127 129 130 125 122 123 127 127 117 110 110 113 117 115 100 86
239 246 248 257 240 251 231 204 157 155 149 142 138 101 112 106 100 109 110 107 110 115 117 118 118 116 119 117 116 117 116 115 114 112 116 114 111 116 123 127 128 118 107 97
232 240 243 271 239 225 89 66 85 115 127 110 97 95 101 106 101 115 119 120 121 118 116 114 117 119 118 114 112 111 113 115 114 112 120 123 120 121 126 131 137 130 123 120
230 234 43 33 43 51 71 76 64 82 101 111 108 105 106 115 117 119 127 126 128 125 121 119 117 118 119 116 119 118 115 113 112 110 107 111 122 133 145 149 155 148 144 136
207 191 190 88 65 43 52 67 59 70 94 108 114 120 119 121 124 123 132 131 130 128 126 124 121 115 118 120 123 123 123 123 121 119 117 99 96 104 102 96 112 112 123 122
214 212 224 123 92 35 51 66 70 74 88 111 121 129 127 130 132 127 129 126 125 132 134 128 117 113 119 122 127 129 129 134 137 130 119 101 77 44 62 56 51 83 82 78
241 233 262 208 107 36 63 76 69 84 95 102 116 124 128 129 131 134 133 134 133 129 132 131 129 123 119 124 133 139 148 151 151 144 135 130 118 86 49 59 68 68 68 89
298 307 295 268 271 303 300 180 126 85 74 86 113 129 133 136 136 143 139 146 143 142 145 145 139 133 130 126 136 146 150 151 150 144 145 147 144 137 123 78 65 63 69 82
318 296 274 263 267 276 197 176 123 104 101 106 131 143 145 143 148 156 152 149 149 148 153 150 145 143 138 135 147 157 162 156 155 153 160 166 160 153 151 150 138 109 83 101
274 260 259 261 241 234 217 191 166 170 168 153 156 168 156 155 158 156 144 148 154 154 153 151 151 145 143 149 156 170 177 170 166 163 171 169 163 154 147 144 137 132 131 134
263 247 238 227 222 224 218 209 197 193 179 166 172 170 153 154 147 141 144 155 164 165 160 157 153 151 155 159 160 167 162 154 166 176 179 168 163 155 148 144 142 141 135 134
246 234 227 229 227 222 217 213 211 197 178 170 156 147 148 149 146 155 165 166 164 162 162 159 155 154 162 169 174 178 161 154 175 194 175 160 162 153 143 141 143 138 132 130
245 240 233 225 225 223 204 197 187 167 155 154 149 157 168 172 170 169 166 169 162 160 164 158 149 151 161 163 165 170 169 168 176 176 164 159 151 145 147 151 148 138 132 130
238 226 222 221 218 204 193 185 187 167 161 167 165 169 174 176 172 172 172 178 173 173 166 152 153 164 160 148 160 180 175 161 158 157 157 152 157 155 154 150 142 136 131 132
224 227 225 217 209 201 195 186 177 161 158 164 168 173 180 179 171 175 185 186 184 169 152 150 164 165 157 150 171 183 174 166 160 160 157 155 153 147 149 147 144 138 135 133
226 224 221 208 196 182 174 169 166 165 164 174 181 186 188 183 188 187 191 180 153 144 151 155 165 159 155 157 190 189 174 171 165 163 159 158 160 157 151 146 145 142 142 144
243 234 219 200 175 164 168 167 169 173 180 191 192 185 182 181 182 180 184 165 148 145 158 163 161 144 147 171 192 180 168 171 168 164 163 164 165 160 148 139 139 139 139 140
245 231 214 193 170 165 166 175 180 179 182 187 185 184 188 184 185 184 173 147 147 155 167 157 143 142 157 188 183 178 173 175 169 162 161 163 160 153 150 153 151 151 153 151
271 227 196 181 169 166 170 185 193 184 180 181 186 187 190 185 187 187 144 138 143 158 161 135 140 147 170 191 177 173 170 163 153 153 159 155 156 155 156 160 164 165 162 164
265 208 189 184 179 177 175 181 189 190 193 192 193 191 198 193 183 159 142 144 142 149 143 142 149 159 177 188 180 172 170 158 159 163 158 152 160 158 154 156 159 165 170 164
250 234 209 193 183 189 204 199 197 190 193 198 194 193 188 161 146 141 145 155 155 156 152 151 164 175 186 186 181 172 169 160 166 171 164 160 164 162 162 166 168 170 164 155
217 205 195 195 189 205 215 213 206 199 194 192 186 183 167 155 151 154 157 158 159 168 163 163 170 177 181 178 172 168 170 166 163 163 162 167 169 168 163 160 167 167 157 141